Wind_Speed
16 16 18 17 17 16 15 14 15 15 10 11 12 12 11 10 10 10 11 10 11 8 3 2 6 5 6 4 5 6 9 9 11 9 13 16 9 8 9 8 5 4 3
14 15 14 17 18 17 15 11 15 14 10 8 8 10 11 11 8 7 7 6 7 6 7 5 6 5 5 4 7 7 9 7 8 9 15 7 6 8 8 4 2 2 4
13 12 13 16 18 17 15 13 10 9 8 8 9 8 9 9 8 7 6 5 4 5 6 7 6 6 8 9 10 9 7 6 10 12 12 6 4 7 4 2 2 3 4
12 13 14 17 16 15 13 16 13 6 8 9 8 8 9 10 10 8 7 6 6 5 5 6 6 7 10 12 11 9 9 11 11 8 8 3 2 4 3 3 2 4 8
12 14 15 20 16 11 10 12 13 10 6 7 7 9 10 9 10 9 8 7 6 4 3 4 5 8 8 6 7 11 8 3 4 4 5 4 4 3 3 3 7 8 6
14 15 15 16 14 14 11 7 9 8 9 9 9 8 7 8 10 9 7 7 6 6 5 6 8 7 6 7 6 4 3 4 5 3 5 7 6 4 3 5 6 10 6
13 15 15 13 14 14 14 14 13 11 10 10 10 10 10 9 10 10 8 7 7 7 7 6 6 7 6 4 4 4 4 5 6 6 5 7 7 7 6 7 7 7 8
13 13 14 14 14 15 14 14 13 12 11 11 12 14 13 12 11 9 10 9 9 9 8 7 6 5 5 3 4 5 5 5 3 3 4 4 4 4 6 8 11 12 8
13 13 13 14 14 13 13 12 11 9 9 9 11 11 11 11 11 9 10 9 10 10 9 6 4 5 6 6 6 8 8 7 6 6 3 3 5 6 7 8 9 9 9
12 12 12 12 11 11 11 13 10 11 11 10 11 10 11 11 13 10 5 8 8 7 6 6 8 6 7 7 7 8 8 8 7 5 6 8 10 9 12 8 9 11 13
10 9 10 10 8 9 11 12 14 16 16 12 10 10 11 11 13 15 13 9 7 7 10 11 8 8 8 8 7 7 8 10 9 7 7 4 7 6 5 6 10 11 12
8 7 9 9 8 8 10 8 10 10 7 7 7 9 12 10 12 12 14 12 10 11 10 8 5 6 7 8 8 11 10 9 12 10 6 7 9 11 11 10 10 10 11
10 12 13 11 10 9 13 13 16 15 15 16 15 13 12 11 10 14 14 13 9 8 7 7 9 10 10 9 11 13 12 10 11 11 12 11 11 10 10 10 13 9 13
11 11 11 10 9 9 10 13 19 17 14 13 14 15 17 16 16 14 12 8 10 9 9 8 8 7 8 7 10 11 12 12 12 12 9 10 11 12 13 14 15 12 12
10 11 10 8 9 11 15 14 15 20 19 15 11 13 13 15 16 17 16 12 8 9 8 9 11 12 11 12 13 13 14 15 15 14 14 13 13 13 16 15 15 14 13
8 8 9 7 10 10 9 10 16 19 20 19 17 13 10 12 11 12 12 11 10 9 7 10 11 12 12 12 13 14 14 15 15 14 14 15 15 15 16 16 15 16 16
5 5 6 7 9 10 10 10 7 6 11 17 17 17 16 15 13 10 10 12 11 7 8 10 11 12 12 12 13 14 15 16 16 15 14 15 15 16 15 16 15 16 17
6 4 4 10 9 11 10 9 10 11 11 9 13 16 16 16 15 12 11 8 9 11 11 11 11 11 11 12 12 14 16 17 17 15 14 15 16 16 16 16 16 17 18
4 7 8 7 8 6 8 8 9 9 9 11 12 13 14 13 16 17 15 12 11 12 12 11 11 11 11 11 12 13 14 16 15 15 15 16 17 16 16 16 17 16 17
2 6 9 11 9 8 8 8 8 8 9 10 12 14 12 11 12 13 14 13 13 12 12 11 11 11 11 12 12 13 14 15 15 16 16 16 17 16 17 17 17 17 18
6 6 6 4 9 8 8 8 7 8 8 8 8 12 12 11 12 12 13 13 13 12 12 12 12 11 11 12 13 13 14 15 15 16 17 17 17 16 16 16 16 17 16
6 6 7 7 7 8 7 6 7 8 8 8 7 6 11 9 11 11 11 11 11 11 12 12 12 12 12 12 13 13 14 14 16 17 17 17 16 17 17 16 17 17 17
5 6 6 5 5 3 5 7 8 8 8 8 8 8 8 9 9 10 10 10 10 11 11 12 12 12 13 12 12 13 14 16 15 17 17 17 16 17 16 17 16 17 18
3 4 6 7 7 5 6 6 5 5 7 8 7 7 7 7 8 8 8 8 8 9 10 10 11 13 13 13 13 12 13 16 15 13 15 15 15 15 16 16 17 16 17
7 5 8 5 5 5 3 5 6 6 7 7 7 6 6 6 6 7 7 7 7 7 8 9 11 11 12 14 14 13 13 14 16 14 14 14 14 15 15 15 16 15 17
4 4 5 5 3 4 4 4 4 5 5 5 5 5 5 5 5 6 6 6 6 7 7 8 9 11 12 12 14 13 13 14 14 15 15 13 14 15 15 15 16 15 16
Wind_Direction
351 355 351 346 339 335 341 343 337 330 344 21 31 28 26 27 32 40 44 38 46 43 5 252 274 296 295 301 286 295 286 334 320 358 324 317 301 317 320 317 276 250 236
357 355 350 356 0 355 354 356 4 10 9 17 28 27 26 19 9 14 18 13 12 354 3 2 24 4 343 308 302 325 336 349 354 312 305 301 303 324 320 289 211 270 309
360 349 7 2 2 353 5 358 355 3 4 15 17 12 11 2 353 344 335 328 321 321 336 348 348 337 324 326 317 317 350 339 320 292 285 304 290 332 337 268 274 273 276
352 14 5 357 356 0 5 9 9 28 17 6 3 353 3 12 0 346 329 315 307 298 311 321 328 339 355 340 345 10 342 322 314 294 312 332 329 321 287 285 301 336 329
21 10 7 358 11 7 11 15 22 24 10 8 6 22 25 31 22 17 8 18 9 356 348 343 9 354 355 358 355 351 345 343 286 318 315 16 41 66 26 13 345 324 323
19 8 5 12 9 9 19 15 31 31 30 31 31 27 22 28 9 12 10 16 23 21 12 12 30 18 358 2 358 17 13 320 309 334 38 61 63 73 52 347 335 356 8
7 11 20 19 26 24 26 27 25 26 34 33 27 23 22 23 16 27 48 37 37 36 36 36 31 35 55 50 26 7 356 3 10 12 25 25 38 20 355 339 355 333 343
20 18 20 23 27 30 31 30 36 42 43 45 45 46 41 32 35 39 45 51 55 60 67 79 67 58 45 1 355 21 36 35 26 29 20 7 349 329 319 314 304 309 335
22 15 13 13 24 19 20 20 28 31 35 36 35 33 41 38 43 57 66 65 75 82 88 73 47 38 34 51 44 53 59 53 26 32 10 316 299 300 304 318 353 339 355
1 356 7 17 12 21 34 36 34 40 42 41 49 67 63 45 46 64 77 67 78 76 75 58 47 64 56 71 46 47 53 30 7 359 335 323 321 307 314 297 310 335 349
356 359 7 19 25 44 50 47 45 62 67 65 65 65 62 55 46 59 72 82 84 81 79 78 67 61 50 41 40 1 347 341 325 320 322 326 323 295 309 302 297 307 325
18 29 35 49 65 66 60 41 45 44 41 31 58 66 64 54 37 44 61 80 72 74 68 67 42 19 6 0 355 329 340 344 309 334 358 20 6 5 359 335 312 293 292
66 77 78 79 75 55 43 38 43 35 36 42 45 40 39 45 47 37 44 48 57 63 46 29 25 21 12 4 2 7 350 352 346 352 351 354 3 346 327 343 331 282 280
93 84 82 72 73 51 46 37 43 32 38 38 37 42 47 46 32 25 24 45 35 39 25 25 29 29 28 17 23 16 11 9 3 355 354 345 336 1 7 1 351 351 322
81 81 69 72 60 60 60 56 51 45 46 36 29 36 29 34 22 24 23 22 19 16 6 37 36 27 25 24 25 24 22 14 9 5 0 355 5 2 355 1 358 351 347
78 69 71 74 62 64 70 81 62 50 45 46 45 48 31 22 16 16 22 23 37 44 33 36 30 27 27 22 17 15 17 12 4 1 1 358 354 350 351 352 355 353 348
64 23 74 52 50 45 35 29 70 92 57 40 41 41 39 33 25 28 41 39 37 37 37 33 29 24 19 16 13 11 8 7 355 358 358 356 354 350 351 352 355 355 346
38 48 17 35 21 11 31 38 40 39 40 55 36 32 28 30 31 42 49 37 40 39 37 31 26 22 18 14 10 8 2 4 3 1 3 360 357 351 356 355 1 356 349
25 38 356 356 21 355 29 40 43 43 37 36 30 26 20 21 32 33 36 37 33 31 25 23 18 16 12 8 6 5 0 6 6 4 3 360 358 356 358 357 359 358 355
46 354 347 328 25 38 38 38 39 38 36 36 33 22 15 26 30 29 31 30 29 28 22 18 15 12 10 8 5 2 2 6 6 3 2 2 1 360 359 359 2 358 5
343 335 332 358 40 32 38 35 28 24 29 32 39 28 34 15 27 27 26 26 25 22 19 14 13 12 10 7 5 3 2 6 7 2 0 1 2 2 0 3 2 3 14
339 8 20 35 36 37 22 27 23 23 23 20 22 27 24 26 26 25 26 25 23 22 20 17 15 15 11 8 6 4 4 4 3 1 358 360 5 1 3 4 6 5 6
7 9 32 38 38 21 32 26 25 21 20 18 14 18 19 23 23 23 24 22 21 21 21 22 21 19 14 12 10 8 6 1 356 355 356 0 5 3 5 4 4 5 4
51 23 25 36 31 18 25 25 35 36 15 16 16 15 16 17 17 19 21 22 22 21 22 23 22 21 18 17 13 11 5 7 5 355 357 2 4 2 5 7 3 7 5
31 24 343 21 11 17 26 15 19 16 18 15 11 11 12 10 15 16 18 20 20 21 21 23 21 17 18 18 16 14 11 8 13 13 6 6 8 6 6 9 4 7 9
269 303 324 328 358 345 350 350 4 7 11 11 9 8 4 4 9 10 14 17 18 18 20 18 16 18 19 12 13 12 10 11 19 28 13 10 10 15 6 10 9 10 13
Height
864 862 859 856 852 849 846 844 841 837 835 833 832 831 829 828 827 826 825 824 822 821 821 821 821 821 821 821 821 820 818 817 815 815 817 816 814 813 811 809 809 808 806
865 863 860 856 853 849 846 844 841 838 836 835 834 832 831 830 829 828 827 826 825 824 822 821 820 820 821 820 818 817 817 818 819 818 817 815 813 812 810 809 808 806 804
867 864 861 859 855 851 848 845 841 840 839 837 836 834 833 831 829 828 827 826 826 825 824 822 822 821 820 819 819 817 817 818 819 818 815 813 812 811 809 808 806 804 802
867 865 863 860 856 853 850 846 843 841 840 838 836 834 832 831 830 828 827 825 825 824 824 823 823 822 822 822 820 819 818 818 817 816 813 813 812 810 809 807 804 802 800
869 867 865 862 858 854 851 849 845 843 841 840 838 836 835 833 832 830 828 826 825 825 824 824 824 824 823 822 822 819 819 818 817 815 813 811 810 809 808 805 804 801 799
872 869 867 863 860 856 852 849 847 845 843 841 839 838 837 835 833 831 830 828 828 827 827 826 826 825 824 823 822 821 820 818 816 814 811 809 810 808 808 806 803 800 797
874 870 868 865 862 858 856 853 850 848 845 844 842 840 838 837 834 832 831 830 829 829 828 828 827 826 825 824 823 822 821 819 817 816 813 812 811 811 810 807 804 802 798
876 873 870 867 865 862 859 856 853 850 848 846 844 842 840 838 836 834 832 831 831 830 830 830 829 829 828 826 825 823 822 820 819 817 816 815 814 813 811 809 806 802 798
879 876 873 870 866 864 861 859 856 854 852 849 847 845 842 840 838 836 836 836 835 834 833 832 832 831 829 827 826 824 822 822 819 817 816 814 813 811 809 808 803 799 792
880 877 875 873 869 867 864 862 859 857 854 852 849 847 845 844 841 840 839 839 838 837 837 836 834 832 831 829 827 825 823 823 822 820 817 815 812 811 809 807 805 802 796
881 879 876 875 872 870 867 865 862 860 857 854 853 852 850 848 846 844 841 841 840 838 836 836 837 834 833 831 830 829 826 823 822 819 815 812 811 808 806 805 804 802 798
882 880 878 876 874 872 870 867 865 862 859 857 855 852 851 850 848 847 845 844 842 841 840 839 838 836 834 833 831 829 825 823 819 816 812 810 808 805 805 804 802 800 798
884 882 881 879 877 875 873 870 867 864 861 859 858 857 854 853 851 849 848 846 845 844 843 841 839 837 835 833 831 829 825 823 821 815 813 810 808 806 803 801 798 795 791
886 884 883 881 880 878 876 873 871 869 867 864 861 860 856 856 856 853 850 848 847 846 844 843 840 838 835 833 831 829 827 825 822 817 814 811 809 805 803 802 797 793 788
888 887 886 884 882 880 879 878 877 875 872 869 867 866 864 862 861 857 854 853 851 849 845 843 841 839 837 835 833 831 829 826 823 820 815 811 808 806 804 801 798 794 789
891 889 888 886 883 881 881 880 879 878 876 874 872 870 868 866 864 861 858 856 853 850 848 846 845 843 841 839 837 834 831 829 826 822 819 816 812 809 807 802 800 797 793
894 892 888 887 883 881 879 878 875 879 879 877 875 873 871 868 865 863 860 858 856 853 851 850 848 847 846 843 841 838 835 833 830 825 822 819 816 811 808 804 801 800 796
894 892 888 887 885 882 880 879 879 878 878 877 878 876 874 871 868 865 862 860 858 856 855 854 852 851 849 847 845 842 840 836 833 829 825 822 819 815 811 808 804 803 800
893 893 891 888 885 884 882 881 881 881 880 879 878 878 876 873 871 869 866 864 862 860 859 858 856 854 852 850 848 846 844 840 837 832 829 825 822 818 814 811 807 805 802
894 894 893 888 885 884 884 883 882 882 881 881 881 881 878 874 873 871 870 868 866 865 863 861 860 858 855 853 851 849 845 842 839 835 832 828 825 821 817 814 810 807 805
895 894 891 886 887 886 886 886 885 883 882 883 884 884 881 879 876 875 874 872 871 869 868 865 862 861 858 856 854 851 848 845 842 839 835 830 827 823 820 817 813 810 808
896 892 891 890 889 889 888 887 886 885 884 883 883 883 882 881 879 878 877 876 874 873 871 869 866 864 862 860 858 855 851 848 846 842 838 833 830 827 823 820 817 813 810
895 893 891 891 891 890 889 888 887 887 886 885 885 884 883 882 881 881 879 879 877 875 874 872 870 868 865 863 861 858 855 852 849 845 841 837 833 831 826 823 820 817 814
894 893 892 891 892 890 890 890 889 889 888 887 886 886 885 884 883 883 881 881 879 878 876 875 873 871 868 866 864 861 858 854 851 848 844 840 837 833 830 826 823 820 817
893 895 893 892 892 891 890 890 890 889 888 888 888 887 886 886 885 884 883 882 881 880 878 877 875 873 871 868 865 862 859 856 852 849 846 843 840 837 833 830 827 823 821
896 895 894 891 891 891 890 890 890 889 889 889 888 888 887 886 885 885 884 883 882 881 880 879 877 875 873 870 866 863 860 857 854 851 848 845 842 840 837 833 830 826 824